Skip Page Navigation
NASA JPL Caltech
NASA Logo - Jet Propulsion Laboratory + View the NASA Portal
+ Near-Earth Object (NEO) Program
Search JPL
JPL Home Earth Solar System Stars & Galaxies Technology
JPL Solar System Dynamics
BODIES ORBITS EPHEMERIDES TOOLS PHYSICAL DATA DISCOVERY FAQ SITE MAP
JPL Small-Body Database Browser
Search: [ help ]  
33330 Bareges (1998 SW)
Classification: Main-belt Asteroid          SPK-ID: 2033330
Ephemeris | Orbit Diagram | Orbital Elements | Physical Parameters | Discovery Circumstances | Close-Approach Data ]

[ show orbit diagram ]
Orbital Elements at Epoch 2457600.5 (2016-Jul-31.0) TDB
Reference: JPL 15 (heliocentric ecliptic J2000)
 Element Value Uncertainty (1-sigma)   Units 
e .2362632770454631 6.6325e-08  
a 2.18288926852851 8.7897e-09 au
q 1.66715269651859 1.4338e-07 au
i 1.155762708506841 5.0571e-06 deg
node 45.62313555375683 0.00029123 deg
peri 287.2733612202995 0.00029133 deg
M 220.390526744795 8.989e-06 deg
tp 2458057.333952016199
(2017-Oct-30.83395202)
3.0191e-05 JED
period 1178.001885482367
3.23
7.1151e-06
1.948e-08
d
yr
n .3056022273280044 1.8458e-09 deg/d
Q 2.698625840538429 1.0866e-08 au
  Orbit Determination Parameters
   # obs. used (total)      496  
   data-arc span      11131 days (30.48 yr)  
   first obs. used      1985-09-15  
   last obs. used      2016-03-07  
   planetary ephem.      DE431  
   SB-pert. ephem.      SB431-BIG16  
   condition code      0  
   fit RMS      .52336  
   data source      ORB  
   producer      Otto Matic  
   solution date      2016-Mar-24 17:11:17  

Additional Information
 Earth MOID = .656597 au 
 Jupiter MOID = 2.66035 au 
 T_jup = 3.642 
[ show covariance matrix ]

Ephemeris | Orbit Diagram | Orbital Elements | Physical Parameters | Discovery Circumstances | Close-Approach Data ]

Physical Parameter Table
Parameter Symbol Value Units Sigma Reference Notes
absolute magnitude H 16.9 mag n/a MPO319492  

33330 Barèges           Discovered 1998 Sept. 16 by the OCA-DLR Asteroid Survey at Caussols.
Barèges is a small mountain village situated at the foot of the Pic du Midi, site of the well-known observatory. Historically known for its spa waters, it is also the base for the largest skiing area in the French Pyrenees.
NOTE: some special characters may not display properly (any characters within {} are an attempt to place the proper accent above a character)
Reference: 20020921/MPCPages.arcLast Updated: 2003-10-02

[ show close-approach data ]
Alternate Designations
 1998 SW = 1985 RZ5 = 2001 QA36 
Ephemeris | Orbit Diagram | Orbital Elements | Physical Parameters | Discovery Circumstances | Close-Approach Data ]
ABOUT SSD CREDITS/AWARDS PRIVACY/COPYRIGHT GLOSSARY LINKS
FirstGov 2016-Apr-29 23:35 UT
(server date/time)  
NASA Home Page
Site Manager:   Ryan S. Park
Webmaster  Alan B. Chamberlin